EA2MKR Weather Reports


time (UTC)temp
C
wind
direction
speed
KPH
gust
KPH
rain 1hr
cm
rain 24hr
cm
rain mn
cm
humidity
%
barometer
mb
20260507100502 15 274 6.4 11.3 0.00 0.03 0.03 71 949.6
20260507100044 15 271 3.2 11.3 0.00 0.03 0.03 69 949.6
20260507100002 15 309 4.8 11.3 0.00 0.03 0.03 69 949.6
20260507095543 15 331 3.2 9.7 0.00 0.03 0.03 71 949.7
20260507095502 15 44 3.2 9.7 0.00 0.03 0.03 70 949.7
20260507095043 15 336 6.4 9.7 0.00 0.03 0.03 70 949.7
20260507095002 15 323 4.8 9.7 0.00 0.03 0.03 70 949.8
20260507094543 15 212 3.2 8.0 0.00 0.03 0.03 71 949.8
20260507094502 15 261 3.2 11.3 0.00 0.03 0.03 71 949.8
20260507094043 15 262 3.2 11.3 0.00 0.03 0.03 74 949.9
20260507094001 14 288 4.8 11.3 0.00 0.03 0.03 74 949.8
20260507093543 14 234 3.2 11.3 0.00 0.03 0.03 71 949.8
20260507093503 14 220 3.2 9.7 0.00 0.03 0.03 73 949.8
20260507093042 14 289 4.8 9.7 0.00 0.03 0.03 71 949.9
20260507093002 14 231 4.8 9.7 0.00 0.03 0.03 72 949.9
20260507092542 13 248 3.2 9.7 0.00 0.03 0.03 75 949.9
20260507092502 13 289 3.2 9.7 0.00 0.03 0.03 76 949.9
20260507092211 13 264 3.2 9.7 0.00 0.03 0.03 75 949.9
20260507091542 13 248 3.2 9.7 0.00 0.03 0.03 75 950.0
20260507091502 13 279 3.2 9.7 0.00 0.03 0.03 73 950.0
20260507091042 13 226 3.2 9.7 0.00 0.03 0.03 76 950.0
20260507091003 13 268 3.2 9.7 0.00 0.03 0.03 76 949.9
20260507090542 12 214 4.8 9.7 0.00 0.03 0.03 76 949.9
20260507090503 12 224 4.8 9.7 0.00 0.03 0.03 76 950.0
20260507090042 12 290 6.4 8.0 0.00 0.03 0.03 76 949.9
20260507090002 12 258 6.4 8.0 0.00 0.03 0.03 76 950.0
20260507085541 12 237 4.8 8.0 0.00 0.03 0.03 78 950.0
20260507085503 12 248 4.8 8.0 0.00 0.03 0.03 78 950.0
20260507085041 12 295 3.2 8.0 0.00 0.03 0.03 82 950.0
20260507085002 11 292 3.2 8.0 0.00 0.03 0.03 80 950.0
20260507084542 11 278 4.8 8.0 0.00 0.03 0.03 81 950.0
20260507084503 11 279 6.4 8.0 0.00 0.03 0.03 81 950.0
20260507084212 11 285 4.8 6.4 0.00 0.03 0.03 83 950.0
20260507083710 11 275 0.0 3.2 0.00 0.03 0.03 86 950.0
20260507083041 11 268 0.0 0.0 0.00 0.03 0.03 87 950.0
20260507083003 11 268 0.0 0.0 0.00 0.03 0.03 87 950.0
20260507082541 10 269 0.0 0.0 0.00 0.03 0.03 90 950.0
20260507082502 10 269 0.0 0.0 0.00 0.03 0.03 90 950.0
20260507082041 10 269 0.0 0.0 0.00 0.03 0.03 92 950.0
20260507082002 10 269 0.0 0.0 0.00 0.03 0.03 92 950.0
20260507081541 9 269 0.0 0.0 0.00 0.03 0.03 93 950.0
20260507081502 9 269 0.0 0.0 0.00 0.03 0.03 94 950.1
20260507081211 8 269 0.0 0.0 0.00 0.03 0.03 95 950.0
20260507080541 8 269 0.0 3.2 0.00 0.03 0.03 96 950.0
20260507080503 8 269 0.0 3.2 0.00 0.03 0.03 96 950.1
20260507080041 8 269 0.0 3.2 0.00 0.03 0.03 96 950.1
20260507080003 8 269 0.0 3.2 0.00 0.03 0.03 96 950.1
20260507075711 8 268 1.6 3.2 0.00 0.03 0.03 97 950.1
20260507075041 7 276 0.0 0.0 0.00 0.03 0.03 97 950.1
20260507075003 7 282 0.0 0.0 0.00 0.03 0.03 97 950.1
20260507074540 7 283 0.0 1.6 0.00 0.03 0.03 97 950.1
20260507074502 7 283 0.0 1.6 0.00 0.03 0.03 97 950.1
20260507074040 7 283 0.0 3.2 0.00 0.03 0.03 97 950.1
20260507074002 7 283 0.0 3.2 0.00 0.03 0.03 97 950.2
20260507073540 6 282 0.0 3.2 0.00 0.03 0.03 96 950.2
20260507073502 6 282 0.0 3.2 0.00 0.03 0.03 96 950.2
20260507073040 6 259 3.2 3.2 0.00 0.03 0.03 96 950.3
20260507073002 6 259 3.2 3.2 0.00 0.03 0.03 96 950.3
20260507072711 6 259 0.0 3.2 0.00 0.03 0.03 96 950.3
20260507072040 6 259 1.6 3.2 0.00 0.03 0.03 96 950.2
20260507072002 6 259 1.6 3.2 0.00 0.03 0.03 96 950.2
20260507071540 5 259 0.0 3.2 0.00 0.03 0.03 96 950.1
20260507071501 5 259 0.0 3.2 0.00 0.03 0.03 96 950.1
20260507071211 5 259 1.6 3.2 0.00 0.03 0.03 96 950.2
20260507070540 5 171 0.0 0.0 0.00 0.03 0.03 96 950.1
20260507070502 5 171 0.0 0.0 0.00 0.03 0.03 96 950.1
20260507070039 5 171 0.0 0.0 0.00 0.03 0.03 96 950.1
20260507070003 5 171 0.0 0.0 0.00 0.03 0.03 97 950.1
20260507065539 5 171 0.0 0.0 0.00 0.03 0.03 97 950.1
20260507065503 5 171 0.0 0.0 0.00 0.03 0.03 97 950.1
20260507065039 5 168 0.0 1.6 0.00 0.03 0.03 97 950.2
20260507065003 5 168 0.0 1.6 0.00 0.03 0.03 97 950.1
20260507064539 5 168 0.0 1.6 0.00 0.03 0.03 97 950.1
20260507064501 5 168 0.0 1.6 0.00 0.03 0.03 97 950.1
20260507064039 5 168 0.0 1.6 0.00 0.03 0.03 97 950.1
20260507064003 5 168 0.0 1.6 0.00 0.03 0.03 97 950.1
20260507063539 4 168 0.0 1.6 0.00 0.03 0.03 97 950.2
20260507063502 4 168 0.0 1.6 0.00 0.03 0.03 97 950.2
20260507063039 3 168 0.0 0.0 0.00 0.03 0.03 97 950.1
20260507063002 3 168 0.0 0.0 0.00 0.03 0.03 97 950.1
20260507062538 3 168 0.0 0.0 0.00 0.03 0.03 97 950.1
20260507062502 3 168 0.0 0.0 0.00 0.03 0.03 97 950.1
20260507062039 3 166 0.0 0.0 0.00 0.03 0.03 97 950.1
20260507062003 3 166 0.0 0.0 0.00 0.03 0.03 97 950.1
20260507061538 3 166 0.0 0.0 0.00 0.03 0.03 97 950.3
20260507061504 3 166 0.0 0.0 0.00 0.03 0.03 97 950.1
20260507061038 3 166 0.0 0.0 0.00 0.03 0.03 97 950.2
20260507061002 3 166 0.0 0.0 0.00 0.03 0.03 97 950.2
20260507060538 3 166 0.0 0.0 0.00 0.03 0.03 97 950.2
20260507060503 3 166 0.0 0.0 0.00 0.03 0.03 97 950.3
20260507060038 3 169 0.0 0.0 0.00 0.03 0.03 97 950.3
20260507060002 3 169 0.0 0.0 0.00 0.03 0.03 97 950.3
20260507055538 3 169 0.0 0.0 0.00 0.03 0.03 97 950.1
20260507055503 3 169 0.0 0.0 0.00 0.03 0.03 97 950.2
20260507055038 3 169 0.0 0.0 0.00 0.03 0.03 97 950.2
20260507055002 3 169 0.0 0.0 0.00 0.03 0.03 97 950.2
20260507054538 3 169 0.0 0.0 0.00 0.03 0.03 97 950.1
20260507054503 3 169 0.0 0.0 0.00 0.03 0.03 97 950.1
20260507054038 3 169 0.0 0.0 0.00 0.03 0.03 97 950.1
20260507054003 3 169 0.0 0.0 0.00 0.03 0.03 97 950.2
20260507053711 2 169 0.0 0.0 0.00 0.03 0.03 97 950.1
20260507053038 2 169 0.0 0.0 0.00 0.03 0.03 97 950.1
20260507053003 2 169 0.0 0.0 0.00 0.03 0.03 97 950.1
20260507052538 2 169 0.0 0.0 0.00 0.03 0.03 97 950.2
20260507052503 2 169 0.0 0.0 0.00 0.03 0.03 97 950.1
20260507052038 2 169 0.0 0.0 0.00 0.03 0.03 97 950.0
20260507052003 2 169 0.0 0.0 0.00 0.03 0.03 97 950.0
20260507051537 2 169 0.0 0.0 0.03 0.03 0.03 97 950.0
20260507051503 2 169 0.0 0.0 0.03 0.03 0.03 97 950.0
20260507051037 2 169 0.0 0.0 0.03 0.03 0.03 97 949.9
20260507051002 2 169 0.0 0.0 0.03 0.03 0.03 97 950.0
20260507050537 2 169 0.0 0.0 0.03 0.03 0.03 97 950.0
20260507050503 2 169 0.0 0.0 0.03 0.03 0.03 97 950.1
20260507050037 2 169 0.0 0.0 0.03 0.03 0.03 97 950.0
20260507050002 2 169 0.0 0.0 0.03 0.00 0.03 97 950.0
20260507045537 2 169 0.0 0.0 0.03 0.00 0.03 96 949.9
20260507045502 2 169 0.0 0.0 0.03 0.00 0.03 96 949.9
20260507045036 2 169 0.0 0.0 0.03 0.00 0.03 96 949.9
20260507045002 2 169 0.0 0.0 0.03 0.00 0.03 96 950.0
20260507044711 2 169 0.0 0.0 0.03 0.00 0.03 96 950.0
20260507044034 2 169 0.0 0.0 0.03 0.00 0.03 96 950.0
20260507044002 2 169 0.0 0.0 0.03 0.00 0.03 96 950.0
20260507043502 3 169 0.0 0.0 0.03 0.00 0.03 97 949.9
20260507043003 2 169 0.0 0.0 0.03 0.00 0.03 96 950.0
20260507042711 2 169 0.0 0.0 0.03 0.00 0.03 96 950.0
20260507042003 2 169 0.0 1.6 0.03 0.00 0.03 96 950.0
20260507041530 2 169 0.0 1.6 0.00 0.00 0.00 96 950.0
20260507041502 2 169 0.0 0.0 0.00 0.00 0.00 96 950.0
20260507041002 2 169 0.0 1.6 0.00 0.00 0.00 96 949.9
20260507040502 3 169 0.0 1.6 0.00 0.00 0.00 96 950.0
20260507040002 3 166 0.0 1.6 0.00 0.00 0.00 96 949.9
20260507035502 3 165 0.0 0.0 0.00 0.00 0.00 96 949.9
20260507035212 3 165 0.0 0.0 0.00 0.00 0.00 96 950.1
20260507034502 3 165 0.0 0.0 0.00 0.00 0.00 96 950.0
20260507034031 2 165 0.0 0.0 0.00 0.00 0.00 96 950.0
20260507034002 3 165 0.0 0.0 0.00 0.00 0.00 96 950.0
20260507033503 3 165 0.0 0.0 0.00 0.00 0.00 96 950.0
20260507033003 3 165 0.0 0.0 0.00 0.00 0.00 95 949.9
20260507032502 3 165 0.0 0.0 0.00 0.00 0.00 95 950.0
20260507032031 3 165 0.0 0.0 0.00 0.00 0.00 95 950.0
20260507032003 3 165 0.0 0.0 0.00 0.00 0.00 95 950.0
20260507031503 3 165 0.0 0.0 0.00 0.00 0.00 96 950.0
20260507031003 3 165 0.0 1.6 0.00 0.00 0.00 96 949.9
20260507030502 4 165 0.0 1.6 0.00 0.00 0.00 96 949.9
20260507030003 3 165 0.0 0.0 0.00 0.00 0.00 96 949.9
20260507025502 4 165 0.0 1.6 0.00 0.00 0.00 96 949.9
20260507025002 3 165 0.0 1.6 0.00 0.00 0.00 96 949.9
20260507024502 3 243 0.0 1.6 0.00 0.00 0.00 95 950.0
20260507024210 4 243 0.0 3.2 0.00 0.00 0.00 95 950.0
20260507023503 4 243 0.0 3.2 0.00 0.00 0.00 95 950.0
20260507023002 4 200 0.0 1.6 0.00 0.00 0.00 96 949.9
20260507022502 4 200 0.0 0.0 0.00 0.00 0.00 96 949.8
20260507022002 4 200 0.0 0.0 0.00 0.00 0.00 95 949.7
20260507021503 4 200 0.0 0.0 0.00 0.00 0.00 95 949.8
20260507021002 4 200 0.0 1.6 0.00 0.00 0.00 95 949.9
20260507020502 4 200 0.0 1.6 0.00 0.00 0.00 95 950.0
20260507020003 4 200 0.0 1.6 0.00 0.00 0.00 95 950.0
20260507015502 4 200 0.0 1.6 0.00 0.00 0.00 95 950.0
20260507015002 4 200 0.0 1.6 0.00 0.00 0.00 94 950.0
20260507014503 4 200 0.0 1.6 0.00 0.00 0.00 93 950.0
20260507014212 5 149 0.0 1.6 0.00 0.00 0.00 96 950.1
20260507013502 5 157 0.0 0.0 0.00 0.00 0.00 94 950.0
20260507013002 5 158 0.0 1.6 0.00 0.00 0.00 94 950.1
20260507012502 5 152 0.0 1.6 0.00 0.00 0.00 94 950.1
20260507012003 5 152 0.0 1.6 0.00 0.00 0.00 93 950.0
20260507011503 5 152 0.0 1.6 0.00 0.00 0.00 94 950.1
20260507011003 6 152 0.0 0.0 0.00 0.00 0.00 95 950.1
20260507010502 5 152 0.0 0.0 0.00 0.00 0.00 95 950.2
20260507010003 5 152 0.0 0.0 0.00 0.00 0.00 94 950.2
20260507005502 5 152 0.0 1.6 0.00 0.00 0.00 94 950.3
20260507005002 5 152 0.0 1.6 0.00 0.00 0.00 94 950.3
20260507004502 5 152 0.0 0.0 0.00 0.00 0.00 94 950.4
20260507004002 6 152 0.0 0.0 0.00 0.00 0.00 94 950.4
20260507003500 6 152 0.0 0.0 0.00 0.00 0.00 95 950.4
20260507002957 6 151 0.0 0.0 0.00 0.00 0.00 95 950.4
20260507002431 6 151 0.0 0.0 0.00 0.00 0.00 94 950.5
20260507002141 6 152 0.0 0.0 0.00 0.00 0.00 95 950.5
20260507001431 6 152 0.0 0.0 0.00 0.00 0.00 94 950.7
20260507000931 6 151 0.0 0.0 0.00 0.00 0.00 94 950.6
20260507000431 6 151 0.0 0.0 0.00 0.00 0.00 94 950.6
20260506235930 6 151 0.0 0.0 0.00 0.00 0.00 94 950.6
20260506235430 6 151 0.0 0.0 0.00 0.00 0.00 94 950.7
20260506234930 6 212 0.0 0.0 0.00 0.00 0.00 94 950.6
20260506234431 6 212 0.0 1.6 0.00 0.00 0.00 94 950.7
20260506233930 6 212 0.0 1.6 0.00 0.00 0.00 93 950.7
20260506233430 6 237 0.0 3.2 0.00 0.00 0.00 93 950.6
20260506232930 6 237 0.0 3.2 0.00 0.00 0.00 93 950.7
20260506232638 6 178 0.0 1.6 0.00 0.00 0.00 93 950.7
20260506231930 6 142 0.0 0.0 0.00 0.00 0.00 92 950.6
20260506231429 6 142 0.0 1.6 0.00 0.00 0.00 92 950.7
20260506230929 6 141 0.0 1.6 0.00 0.00 0.00 91 950.7
20260506230430 6 154 0.0 0.0 0.00 0.00 0.00 92 950.6
20260506225929 6 155 0.0 1.6 0.00 0.00 0.00 91 950.7
20260506225430 6 155 0.0 1.6 0.00 0.00 0.00 92 950.9
20260506224929 7 155 0.0 1.6 0.00 0.00 0.00 91 951.0
20260506224637 7 155 0.0 1.6 0.00 0.00 0.00 92 951.0
20260506223929 7 155 0.0 1.6 0.00 0.00 0.00 92 951.0
20260506223429 6 155 0.0 0.0 0.00 0.00 0.00 90 951.0
20260506223138 7 157 0.0 0.0 0.00 0.00 0.00 90 950.9
20260506222428 7 155 0.0 1.6 0.00 0.00 0.00 89 951.0
20260506221928 7 155 1.6 4.8 0.00 0.00 0.00 87 951.0
20260506221637 7 158 3.2 4.8 0.00 0.00 0.00 90 951.0
20260506220928 7 128 0.0 3.2 0.00 0.00 0.00 90 951.0
20260506220429 7 128 0.0 3.2 0.00 0.00 0.00 88 951.0
20260506215928 8 131 0.0 3.2 0.00 0.00 0.00 87 951.1
20260506215637 8 134 0.0 6.4 0.00 0.00 0.00 88 951.1
20260506215136 8 125 1.6 6.4 0.00 0.00 0.00 88 951.0
20260506214427 8 180 0.0 4.8 0.00 0.00 0.00 87 951.1
20260506213927 8 117 1.6 3.2 0.00 0.00 0.00 87 951.0
20260506213427 8 141 1.6 6.4 0.00 0.00 0.00 88 950.9
20260506212928 8 128 1.6 6.4 0.00 0.00 0.00 88 950.9
20260506212635 8 137 0.0 3.2 0.00 0.00 0.00 88 950.9
20260506211927 8 144 0.0 1.6 0.00 0.00 0.00 88 951.0
20260506211428 8 144 0.0 1.6 0.00 0.00 0.00 88 951.0
20260506210926 8 125 0.0 6.4 0.00 0.00 0.00 87 951.0
20260506210427 8 124 1.6 6.4 0.00 0.00 0.00 87 951.0
20260506210136 8 134 3.2 6.4 0.00 0.00 0.00 88 951.1
20260506205635 8 135 1.6 4.8 0.00 0.00 0.00 88 951.1
20260506204927 8 125 3.2 4.8 0.00 0.00 0.00 87 951.0
20260506204427 8 128 3.2 4.8 0.00 0.00 0.00 86 951.0
20260506203926 8 140 0.0 3.2 0.00 0.00 0.00 85 951.0
20260506203426 8 138 1.6 3.2 0.00 0.00 0.00 84 950.9
20260506202927 9 138 0.0 3.2 0.00 0.00 0.00 84 950.9
20260506202634 9 111 0.0 6.4 0.00 0.00 0.00 84 950.9
20260506201923 9 124 1.6 6.4 0.00 0.00 0.00 84 950.9
20260506201423 9 121 0.0 3.2 0.00 0.00 0.00 83 950.9
20260506200925 9 120 1.6 3.2 0.00 0.00 0.00 84 950.9
20260506200921 9 120 1.6 3.2 0.00 0.00 0.00 84 950.8
20260506200419 8 118 0.0 1.6 0.00 0.00 0.00 84 950.8
20260506200127 8 118 0.0 1.6 0.00 0.00 0.00 84 950.8
20260506195411 9 118 0.0 6.4 0.00 0.00 0.00 83 950.7
20260506194903 9 118 0.0 6.4 0.00 0.00 0.00 82 950.7
20260506194426 9 100 1.6 4.8 0.00 0.00 0.00 82 950.7
20260506194402 9 99 1.6 4.8 0.00 0.00 0.00 82 950.7
20260506193925 10 97 1.6 4.8 0.00 0.00 0.00 81 950.7
20260506193902 10 102 1.6 4.8 0.00 0.00 0.00 81 950.6
20260506193426 10 133 1.6 6.4 0.00 0.00 0.00 81 950.6
20260506193402 10 133 3.2 6.4 0.00 0.00 0.00 81 950.6
20260506193110 10 138 1.6 6.4 0.00 0.00 0.00 80 950.6
20260506192610 10 127 1.6 9.7 0.00 0.00 0.00 79 950.6
20260506192110 10 116 4.8 9.7 0.00 0.00 0.00 78 950.4
20260506191425 10 111 3.2 11.3 0.00 0.00 0.00 77 950.4
20260506191403 10 97 3.2 11.3 0.00 0.00 0.00 77 950.4
20260506190924 10 102 4.8 11.3 0.00 0.00 0.00 77 950.4
20260506190855 10 110 3.2 11.3 0.00 0.00 0.00 77 950.4
20260506190424 10 134 3.2 11.3 0.00 0.00 0.00 77 950.4
20260506190350 10 137 3.2 11.3 0.00 0.00 0.00 77 950.4
20260506185924 11 103 3.2 11.3 0.00 0.00 0.00 76 950.4
20260506185842 11 123 4.8 11.3 0.00 0.00 0.00 76 950.4
20260506185549 11 121 3.2 8.0 0.00 0.00 0.00 76 950.3
20260506184925 11 127 1.6 14.5 0.00 0.00 0.00 75 950.3
20260506184838 11 127 1.6 14.5 0.00 0.00 0.00 75 950.3
20260506184424 11 109 4.8 14.5 0.00 0.00 0.00 76 950.3
20260506184338 11 100 3.2 9.7 0.00 0.00 0.00 76 950.2
20260506184043 11 137 3.2 8.0 0.00 0.00 0.00 76 950.2
20260506183424 12 118 4.8 8.0 0.00 0.00 0.00 74 950.2
20260506183335 12 162 3.2 8.0 0.00 0.00 0.00 74 950.2
20260506182924 12 134 3.2 6.4 0.00 0.00 0.00 72 950.2
20260506182832 12 130 3.2 6.4 0.00 0.00 0.00 72 950.1
20260506182424 12 121 1.6 6.4 0.00 0.00 0.00 71 950.1
20260506182330 12 123 1.6 6.4 0.00 0.00 0.00 72 950.1
20260506181924 12 106 3.2 8.0 0.00 0.00 0.00 71 950.2
20260506181831 12 106 3.2 8.0 0.00 0.00 0.00 71 950.2
20260506181424 12 127 3.2 11.3 0.00 0.00 0.00 72 950.1
20260506181331 12 109 1.6 11.3 0.00 0.00 0.00 72 950.1
20260506180923 12 113 3.2 11.3 0.00 0.00 0.00 72 950.1
20260506180831 12 104 3.2 11.3 0.00 0.00 0.00 72 950.1
20260506180423 12 114 1.6 8.0 0.00 0.00 0.00 74 950.1
20260506180331 12 125 1.6 8.0 0.00 0.00 0.00 74 950.1
20260506180040 12 114 1.6 11.3 0.00 0.00 0.00 75 950.2
20260506175423 12 161 3.2 11.3 0.00 0.00 0.00 77 950.1
20260506175331 11 140 3.2 11.3 0.00 0.00 0.00 77 950.1
20260506174923 11 134 4.8 14.5 0.00 0.00 0.00 77 950.0
20260506174830 11 202 4.8 14.5 0.00 0.00 0.00 77 950.1
20260506174423 11 106 3.2 14.5 0.00 0.00 0.00 76 950.1
20260506174332 11 113 3.2 14.5 0.00 0.00 0.00 76 950.1
20260506173922 11 121 1.6 9.7 0.00 0.00 0.00 76 950.1
20260506173831 11 127 1.6 9.7 0.00 0.00 0.00 76 950.1
20260506173422 11 131 3.2 9.7 0.00 0.00 0.00 75 950.1
20260506173331 11 213 4.8 9.7 0.00 0.00 0.00 75 950.1
20260506172922 11 121 3.2 9.7 0.00 0.00 0.00 74 950.1
20260506172831 11 127 1.6 9.7 0.00 0.00 0.00 74 950.1
20260506172422 12 144 4.8 9.7 0.00 0.00 0.00 73 950.2
20260506172332 12 86 4.8 9.7 0.00 0.00 0.00 73 950.2
20260506171923 12 133 3.2 14.5 0.00 0.00 0.00 72 950.1
20260506171831 12 99 3.2 14.5 0.00 0.00 0.00 73 950.2
20260506171422 12 133 3.2 17.7 0.00 0.00 0.00 72 950.2
20260506171332 12 87 3.2 17.7 0.00 0.00 0.00 71 950.2
20260506170922 13 92 9.7 17.7 0.00 0.00 0.00 71 950.1
20260506170828 13 89 6.4 19.3 0.00 0.00 0.00 71 950.1
20260506170422 13 86 8.0 20.9 0.00 0.00 0.00 69 950.1
20260506170328 13 100 11.3 20.9 0.00 0.00 0.00 69 950.1
20260506165921 13 104 14.5 20.9 0.00 0.00 0.00 67 950.0
20260506165826 13 100 12.9 20.9 0.00 0.00 0.00 68 950.1
20260506165534 13 114 9.7 20.9 0.00 0.00 0.00 69 950.0
20260506164922 13 92 9.7 17.7 0.00 0.00 0.00 68 950.0
20260506164824 13 110 8.0 17.7 0.00 0.00 0.00 68 950.0
20260506164421 13 114 3.2 17.7 0.00 0.00 0.00 68 949.9
20260506164324 13 118 6.4 17.7 0.00 0.00 0.00 69 949.9
20260506164032 13 97 3.2 17.7 0.00 0.00 0.00 69 949.8
20260506163421 13 141 1.6 17.7 0.00 0.00 0.00 71 949.8
20260506163325 13 214 4.8 17.7 0.00 0.00 0.00 71 949.9
20260506162921 13 86 4.8 16.1 0.00 0.00 0.00 72 949.8
20260506162823 13 76 3.2 14.5 0.00 0.00 0.00 71 949.8
20260506162421 13 200 0.0 9.7 0.00 0.00 0.00 73 949.8
20260506162324 13 117 1.6 11.3 0.00 0.00 0.00 73 949.9
20260506161921 13 107 1.6 11.3 0.00 0.00 0.00 73 949.9
20260506161823 12 147 1.6 11.3 0.00 0.00 0.00 72 949.9
20260506161421 13 125 8.0 11.3 0.00 0.00 0.00 74 949.9
20260506161323 12 86 8.0 11.3 0.00 0.00 0.00 74 949.9
20260506160921 12 133 1.6 16.1 0.00 0.00 0.00 73 950.0
20260506160823 12 158 3.2 16.1 0.00 0.00 0.00 73 950.0
20260506160420 12 94 3.2 22.5 0.00 0.00 0.00 73 950.0
20260506160323 12 121 3.2 22.5 0.00 0.00 0.00 72 950.0
20260506160031 13 111 11.3 22.5 0.00 0.00 0.00 73 949.9
20260506155420 12 107 3.2 20.9 0.00 0.00 0.00 76 950.0
20260506155323 12 76 4.8 20.9 0.00 0.00 0.00 77 950.0
20260506154921 12 102 11.3 20.9 0.00 0.00 0.00 76 950.1
20260506154823 12 116 14.5 20.9 0.00 0.00 0.00 77 950.0
20260506154421 12 140 8.0 19.3 0.00 0.00 0.00 78 950.1
20260506154322 12 135 9.7 19.3 0.00 0.00 0.00 78 950.1
20260506153920 12 110 8.0 16.1 0.00 0.00 0.00 82 950.1
20260506153822 12 149 8.0 16.1 0.00 0.00 0.00 81 950.2
20260506153420 12 79 3.2 9.7 0.00 0.00 0.00 82 950.2
20260506153323 12 123 0.0 9.7 0.00 0.00 0.00 82 950.3
20260506152920 11 116 3.2 9.7 0.00 0.00 0.00 81 950.3
20260506152822 11 116 3.2 9.7 0.00 0.00 0.00 80 950.3
20260506152419 12 128 4.8 9.7 0.00 0.00 0.00 80 950.3
20260506152322 12 137 3.2 8.0 0.00 0.00 0.00 80 950.3
20260506151919 12 152 0.0 8.0 0.00 0.00 0.00 80 950.3
20260506151822 12 149 0.0 9.7 0.00 0.00 0.00 80 950.4
20260506151420 12 110 3.2 22.5 0.00 0.00 0.00 78 950.4
20260506151322 12 138 3.2 22.5 0.00 0.00 0.00 77 950.4
20260506150920 12 99 11.3 22.5 0.00 0.00 0.00 78 950.4
20260506150822 12 102 14.5 27.4 0.00 0.00 0.00 78 950.4
20260506150419 12 90 12.9 27.4 0.00 0.00 0.00 76 950.3
20260506150322 12 99 12.9 27.4 0.00 0.00 0.00 75 950.3
20260506145920 12 104 11.3 27.4 0.00 0.00 0.00 75 950.2
20260506145822 12 92 9.7 22.5 0.00 0.00 0.00 74 950.2
20260506145419 12 97 9.7 22.5 0.00 0.00 0.00 74 950.3
20260506145323 12 102 11.3 24.1 0.00 0.00 0.00 76 950.3
20260506144919 13 102 12.9 24.1 0.00 0.00 0.00 75 950.3
20260506144822 13 99 14.5 24.1 0.00 0.00 0.00 75 950.2
20260506144530 13 125 14.5 29.0 0.00 0.00 0.00 77 950.3
20260506143919 12 80 16.1 29.0 0.00 0.00 0.00 76 950.3
20260506143822 12 106 20.9 29.0 0.00 0.00 0.00 74 950.4
20260506143529 13 93 20.9 27.4 0.00 0.00 0.00 72 950.3
20260506143029 13 94 17.7 27.4 0.00 0.00 0.00 75 950.4
20260506142529 13 71 11.3 19.3 0.00 0.00 0.00 75 950.4
20260506141919 13 134 6.4 20.9 0.00 0.00 0.00 74 950.4
20260506141821 13 110 6.4 20.9 0.00 0.00 0.00 75 950.5
20260506141418 13 94 11.3 20.9 0.00 0.00 0.00 73 950.4
20260506141321 13 109 12.9 20.9 0.00 0.00 0.00 73 950.4
20260506140918 13 116 11.3 20.9 0.00 0.03 0.00 74 950.5
20260506140821 13 86 14.5 20.9 0.00 0.05 0.00 73 950.4
20260506140419 13 90 6.4 19.3 0.00 0.05 0.00 73 950.5
20260506140320 13 117 4.8 19.3 0.00 0.05 0.00 73 950.5
20260506135918 13 107 11.3 19.3 0.00 0.08 0.00 71 950.6
20260506135820 13 102 8.0 19.3 0.00 0.10 0.00 73 950.6
20260506135418 13 85 12.9 19.3 0.00 0.10 0.00 75 950.7
20260506135320 13 97 9.7 17.7 0.00 0.10 0.00 74 950.6
20260506134917 13 117 8.0 17.7 0.00 0.15 0.00 74 950.7
20260506134821 12 106 8.0 17.7 0.00 0.15 0.00 75 950.6
20260506134418 12 100 8.0 17.7 0.00 0.23 0.00 74 950.6
20260506134320 12 142 6.4 17.7 0.00 0.23 0.00 74 950.7
20260506133918 12 127 8.0 17.7 0.00 0.23 0.00 76 950.6
20260506133820 12 96 11.3 17.7 0.00 0.23 0.00 75 950.7
20260506133418 12 106 8.0 16.1 0.00 0.23 0.00 74 950.6
20260506133320 12 110 6.4 16.1 0.00 0.23 0.00 73 950.6
20260506132917 12 147 6.4 16.1 0.00 0.23 0.00 73 950.6
20260506132820 12 124 4.8 16.1 0.00 0.23 0.00 75 950.6
20260506132418 12 110 6.4 17.7 0.00 0.23 0.00 73 950.7
20260506132320 12 85 6.4 17.7 0.00 0.23 0.00 73 950.6
20260506132028 12 94 8.0 19.3 0.00 0.23 0.00 73 950.7
20260506131417 12 137 6.4 19.3 0.00 0.23 0.00 75 950.6
20260506131320 12 97 8.0 19.3 0.00 0.23 0.00 74 950.6
20260506130917 12 96 9.7 17.7 0.00 0.23 0.00 75 950.6
20260506130820 12 123 9.7 17.7 0.00 0.23 0.00 74 950.6
20260506130416 12 107 6.4 11.3 0.00 0.23 0.00 76 950.6
20260506130319 12 110 4.8 11.3 0.00 0.23 0.00 75 950.5
20260506125915 12 117 3.2 16.1 0.00 0.23 0.00 75 950.5
20260506125819 12 106 3.2 16.1 0.00 0.23 0.00 74 950.5
20260506125417 12 147 8.0 16.1 0.00 0.23 0.00 73 950.5
20260506125319 12 106 8.0 16.1 0.00 0.23 0.00 73 950.6
20260506124917 12 107 4.8 11.3 0.00 0.23 0.00 74 950.4
20260506124819 12 106 4.8 11.3 0.00 0.23 0.00 73 950.4
20260506124416 12 121 4.8 9.7 0.00 0.23 0.00 73 950.4
20260506124319 12 124 4.8 9.7 0.00 0.23 0.00 75 950.4
20260506123916 12 111 1.6 11.3 0.00 0.23 0.00 75 950.4
20260506123819 12 145 3.2 11.3 0.00 0.23 0.00 72 950.5
20260506123416 12 140 6.4 11.3 0.00 0.23 0.00 73 950.5
20260506123319 12 125 6.4 11.3 0.00 0.23 0.00 73 950.5
20260506122916 12 131 3.2 11.3 0.00 0.23 0.00 74 950.4
20260506122819 12 138 1.6 11.3 0.00 0.23 0.00 72 950.4
20260506122416 12 109 6.4 11.3 0.00 0.23 0.00 73 950.4
20260506122319 12 138 6.4 11.3 0.00 0.23 0.00 73 950.5
20260506121915 12 94 6.4 9.7 0.00 0.23 0.00 73 950.4
20260506121819 12 86 4.8 9.7 0.00 0.23 0.00 72 950.4
20260506121415 12 116 1.6 11.3 0.00 0.23 0.00 76 950.5
20260506121318 12 97 0.0 11.3 0.00 0.23 0.00 74 950.5
20260506121026 12 123 1.6 11.3 0.00 0.23 0.00 73 950.5
20260506120415 12 117 3.2 9.7 0.00 0.23 0.00 74 950.5
20260506120318 12 124 3.2 9.7 0.00 0.23 0.00 75 950.5
20260506115915 12 107 1.6 9.7 0.00 0.23 0.00 73 950.6
20260506115818 12 104 3.2 9.7 0.00 0.23 0.00 73 950.6
20260506115415 12 125 3.2 11.3 0.00 0.23 0.00 72 950.6
20260506115318 12 152 1.6 11.3 0.00 0.23 0.00 74 950.6
20260506115026 12 116 3.2 17.7 0.00 0.23 0.00 75 950.6
20260506114415 12 123 9.7 17.7 0.00 0.23 0.00 74 950.7
20260506114317 12 114 11.3 17.7 0.00 0.23 0.00 72 950.6
20260506113915 12 124 4.8 11.3 0.00 0.23 0.00 75 950.6
20260506113818 12 100 6.4 11.3 0.00 0.23 0.00 74 950.7
20260506113415 12 140 8.0 14.5 0.00 0.23 0.00 73 950.6
20260506113317 12 134 4.8 14.5 0.00 0.23 0.00 74 950.7
20260506112915 12 89 4.8 14.5 0.00 0.23 0.00 76 950.7
20260506112817 12 114 6.4 14.5 0.00 0.23 0.00 75 950.7
20260506112415 12 124 3.2 8.0 0.00 0.23 0.00 73 950.6
20260506112317 12 99 3.2 9.7 0.00 0.23 0.00 75 950.6
20260506111914 11 113 4.8 9.7 0.00 0.23 0.00 75 950.6
20260506111817 11 154 4.8 9.7 0.00 0.23 0.00 74 950.6
20260506111414 11 114 4.8 11.3 0.00 0.23 0.00 74 950.6
20260506111317 11 135 3.2 11.3 0.00 0.23 0.00 76 950.7
20260506110914 11 104 6.4 11.3 0.00 0.23 0.00 77 950.7
20260506110817 11 102 6.4 11.3 0.00 0.23 0.00 78 950.7
20260506110414 11 113 3.2 8.0 0.00 0.23 0.00 78 950.7
20260506110317 11 107 1.6 8.0 0.00 0.23 0.00 77 950.7
20260506110025 11 89 4.8 9.7 0.00 0.25 0.00 77 950.7
20260506105414 11 82 6.4 11.3 0.00 0.25 0.00 76 950.8
20260506105316 11 99 6.4 11.3 0.00 0.25 0.00 76 950.7
20260506104914 11 100 9.7 11.3 0.00 0.25 0.00 77 950.8
20260506104817 11 80 6.4 11.3 0.00 0.25 0.00 76 950.7
20260506104414 11 102 6.4 14.5 0.00 0.28 0.00 77 950.7
20260506104316 11 103 6.4 14.5 0.00 0.28 0.00 77 950.8
20260506103913 11 87 6.4 16.1 0.00 0.28 0.00 77 950.7
20260506103817 11 94 6.4 16.1 0.00 0.28 0.00 75 950.7
20260506103413 11 102 6.4 16.1 0.00 0.28 0.00 78 950.6
20260506103316 11 106 9.7 16.1 0.00 0.28 0.00 78 950.7
20260506102913 11 90 3.2 9.7 0.00 0.28 0.00 78 950.7
20260506102816 11 127 3.2 9.7 0.00 0.28 0.00 79 950.7
20260506102413 11 134 4.8 9.7 0.00 0.28 0.00 79 950.7
20260506102315 11 131 3.2 9.7 0.00 0.28 0.00 80 950.7
20260506101913 10 131 4.8 6.4 0.00 0.28 0.00 78 950.8
20260506101815 10 125 4.8 6.4 0.00 0.28 0.00 79 950.7
20260506101413 10 137 3.2 8.0 0.00 0.28 0.00 80 950.8
20260506101316 10 138 1.6 8.0 0.00 0.28 0.00 81 950.8
20260506100913 10 140 3.2 14.5 0.00 0.28 0.00 82 950.8
20260506100816 10 109 3.2 14.5 0.00 0.28 0.00 81 950.8
20260506100524 10 104 4.8 14.5 0.00 0.28 0.00 81 950.8